Find Starlink 31621

NORAD ID: 59465 Int'l Des: 2024-068 Owner: SPXS Country: US Constellation: starlink operational
LEOCIRCULAR

Live Position

Loading 3D Globe...

About Starlink 31621

Description loading...

Upcoming Passes

Passes for default location (London). Set your location on the main map for personalized predictions.

Altitude History

Loading altitude history...

Two-Line Element Set

1 59465U 24068L 26124.28255407 .00001513 00000-0 64487-4 0 9990
2 59465 43.0012 80.6782 0001327 238.2953 121.7769 15.27577304117022
Epoch: May 4, 2026 • Age: 15 hours

Current Status

Altitude 486.9 km
Velocity 7.63 km/s
Sub-Earth Point 42.99°N, 9.12°W
Launch Date Apr 10, 2024
Age 2 years
Type internet

Technical Details

Classification Payload
Mass 730.00 kg
Dry Mass 700.00 kg
Total Mass 730.00 kg
Length 0.30 m
Diameter 4.10 m
Span 29.00 m
Shape Box + pan
Manufacturer SPXS
Bus Type Starlink V2M
Phase Status In Orbit
Owner/State SPXS/US

Most Searched